Location: Bad Dürkheim
(49.4618°N, 8.1724°E)
Time: 05:42:04
(UTC+00:00)

Meteor 1-21 - Pass Details

Date: 14 June 2025
Orbit: 843 x 886 km, 81.2° (Epoch: 12 July)

Event Time Altitude Azimuth Distance (km) Brightness Sun altitude
Exits shadow 21:42:07 13° 190° (S) 2,317 6.0 -13.5°
Maximum altitude 21:47:20 90° 260° (W) 878 4.3 -13.9°
Drops below altitude 10° 21:53:09 10° 12° (NNE) 2,543 7.6 -14.2°
Sets 21:55:37 0° 13° (NNE) 3,491 8.4 -14.4°
